TimeEDT,TemperatureF,Dew PointF,Humidity,Sea Level PressureIn,VisibilityMPH,Wind Direction,Wind SpeedMPH,Gust SpeedMPH,PrecipitationIn,Events,Conditions,WindDirDegrees,DateUTC
12:53 AM,61.0,55.0,81,29.96,10.0,Variable,3.5,-,N/A,,Clear,0,2013-09-04 04:53:00
1:53 AM,61.0,55.9,83,29.96,10.0,SW,3.5,-,N/A,,Clear,230,2013-09-04 05:53:00
2:53 AM,59.0,55.9,90,29.94,10.0,SSW,3.5,-,N/A,,Clear,210,2013-09-04 06:53:00
3:53 AM,60.1,57.0,90,29.94,10.0,Variable,3.5,-,N/A,,Clear,0,2013-09-04 07:53:00
4:53 AM,61.0,57.0,87,29.94,10.0,SW,6.9,-,N/A,,Clear,220,2013-09-04 08:53:00
5:53 AM,61.0,57.0,87,29.96,10.0,Calm,Calm,-,N/A,,Clear,0,2013-09-04 09:53:00
6:53 AM,60.1,57.0,90,29.97,10.0,SW,3.5,-,N/A,,Clear,220,2013-09-04 10:53:00
7:53 AM,61.0,57.0,87,29.99,10.0,Variable,3.5,-,N/A,,Clear,0,2013-09-04 11:53:00
8:53 AM,64.9,59.0,81,30.01,10.0,West,4.6,-,N/A,,Partly Cloudy,270,2013-09-04 12:53:00
9:53 AM,68.0,59.0,73,30.01,10.0,West,6.9,-,N/A,,Mostly Cloudy,270,2013-09-04 13:53:00
10:19 AM,69.8,60.8,73,30.02,10.0,WNW,3.5,-,N/A,,Mostly Cloudy,300,2013-09-04 14:19:00
10:53 AM,69.1,59.0,70,30.03,10.0,NNW,9.2,-,N/A,,Overcast,340,2013-09-04 14:53:00
11:53 AM,66.9,59.0,76,30.06,10.0,NNW,9.2,-,N/A,,Overcast,340,2013-09-04 15:53:00
12:53 PM,66.9,59.0,76,30.06,10.0,Variable,5.8,-,N/A,,Overcast,0,2013-09-04 16:53:00
1:07 PM,66.2,59.0,78,30.06,10.0,NNE,8.1,-,N/A,,Overcast,30,2013-09-04 17:07:00
1:53 PM,66.0,57.9,75,30.07,10.0,Variable,3.5,-,N/A,,Overcast,0,2013-09-04 17:53:00
2:53 PM,64.9,57.0,75,30.08,10.0,North,5.8,-,N/A,,Overcast,10,2013-09-04 18:53:00
3:25 PM,66.2,57.2,73,30.08,10.0,North,5.8,-,N/A,,Overcast,360,2013-09-04 19:25:00
3:53 PM,66.0,55.9,70,30.07,10.0,Calm,Calm,-,N/A,,Mostly Cloudy,0,2013-09-04 19:53:00
4:07 PM,68.0,53.6,60,30.07,10.0,North,10.4,-,N/A,,Scattered Clouds,350,2013-09-04 20:07:00
4:53 PM,69.1,51.1,53,30.08,10.0,North,11.5,-,N/A,,Scattered Clouds,360,2013-09-04 20:53:00
5:53 PM,68.0,50.0,52,30.09,10.0,NNW,11.5,-,N/A,,Scattered Clouds,340,2013-09-04 21:53:00
6:53 PM,66.0,44.1,45,30.10,10.0,North,9.2,-,N/A,,Mostly Cloudy,360,2013-09-04 22:53:00
7:53 PM,64.0,46.0,52,30.10,10.0,NNW,6.9,-,N/A,,Mostly Cloudy,340,2013-09-04 23:53:00
8:53 PM,61.0,46.0,58,30.11,10.0,North,3.5,-,N/A,,Scattered Clouds,350,2013-09-05 00:53:00
9:53 PM,55.0,46.9,74,30.13,10.0,Calm,Calm,-,N/A,,Clear,0,2013-09-05 01:53:00
10:53 PM,54.0,48.0,80,30.15,10.0,Calm,Calm,-,N/A,,Clear,0,2013-09-05 02:53:00
11:53 PM,60.1,46.9,62,30.15,10.0,North,5.8,-,N/A,,Clear,350,2013-09-05 03:53:00